EW1042 Weather Reports


time (UTC)temp
C
wind
direction
speed
KPH
gust
KPH
rain 1hr
cm
rain 24hr
cm
rain mn
cm
humidity
%
barometer
mb
20260502123007 2 275 12.9 25.7 0.00 0.08 0.03 76 1019.1
20260502121505 2 257 8.0 22.5 0.03 0.08 0.03 77 1019.1
20260502114545 2 262 8.0 19.3 0.03 0.08 0.03 78 1019.0
20260502113027 2 249 12.9 19.3 0.03 0.08 0.03 78 1018.9
20260502111526 2 232 9.7 16.1 0.00 0.05 0.00 78 1018.7
20260502110002 2 216 8.0 16.1 0.00 0.05 0.05 78 1018.5
20260502104502 2 221 6.4 14.5 0.00 0.05 0.05 78 1018.4
20260502103051 2 235 6.4 12.9 0.00 0.05 0.05 78 1018.3
20260502101603 2 234 6.4 11.3 0.00 0.05 0.05 78 1018.2
20260502091508 2 212 3.2 11.3 0.00 0.05 0.05 78 1017.7
20260502070026 1 198 0.0 0.0 0.00 0.05 0.05 77 1017.6
20260502064530 1 233 0.0 0.0 0.00 0.05 0.05 77 1017.8
20260502063010 2 240 0.0 0.0 0.00 0.05 0.05 77 1017.9
20260502061508 2 240 0.0 0.0 0.00 0.05 0.05 77 1017.8
20260502054550 2 241 0.0 0.0 0.00 0.05 0.05 77 1018.2
20260502053036 2 245 0.0 0.0 0.00 0.05 0.05 77 1018.2
20260502051535 2 245 0.0 0.0 0.00 0.05 0.05 77 1018.2
20260502050014 2 246 0.0 0.0 0.00 0.05 0.05 77 1018.2
20260502044513 2 246 0.0 0.0 0.00 0.05 0.05 77 1018.3
20260502043112 2 246 0.0 0.0 0.00 0.05 0.05 77 1018.3
20260502041556 2 246 0.0 0.0 0.00 0.05 0.05 77 1018.4
20260502040037 2 246 0.0 0.0 0.00 0.05 0.05 76 1018.3
20260502034537 2 246 0.0 0.0 0.03 0.05 0.05 76 1018.3
20260502033019 2 247 0.0 0.0 0.03 0.05 0.05 76 1018.4
20260502031520 2 247 0.0 0.0 0.03 0.05 0.05 76 1018.3
20260502030007 2 247 0.0 0.0 0.03 0.05 0.05 75 1018.3
20260502024506 2 247 0.0 0.0 0.03 0.03 0.03 75 1018.3
20260502023008 2 247 0.0 0.0 0.03 0.03 0.03 74 1018.4
20260502021507 2 247 0.0 0.0 0.03 0.03 0.03 74 1018.5
20260502020012 2 247 0.0 0.0 0.03 0.03 0.03 74 1018.5
20260502014506 3 247 0.0 0.0 0.00 0.00 0.00 73 1018.5
20260502013003 3 248 0.0 0.0 0.00 0.00 0.00 73 1018.6
20260502011512 3 248 0.0 0.0 0.00 0.00 0.00 72 1018.3
20260502010047 3 248 1.6 6.4 0.00 0.00 0.00 72 1018.4
20260502004557 3 263 0.0 0.0 0.00 0.00 0.00 73 1018.3
20260502003028 3 266 0.0 0.0 0.00 0.00 0.00 74 1018.2
20260502001527 4 290 3.2 9.7 0.00 0.00 0.00 74 1018.1
20260502000010 4 289 4.8 11.3 0.00 0.00 0.00 73 1018.1
20260501234509 5 282 3.2 8.0 0.00 0.00 0.00 69 1018.0
20260501233109 5 257 0.0 8.0 0.00 0.00 0.00 67 1017.9
20260501231600 5 273 11.3 16.1 0.00 0.00 0.00 65 1017.8
20260501230050 6 201 8.0 16.1 0.00 0.00 0.00 62 1017.8
20260501224532 6 260 6.4 14.5 0.00 0.00 0.00 54 1017.6
20260501223031 6 260 6.4 16.1 0.00 0.00 0.00 56 1017.5
20260501221513 6 303 0.0 14.5 0.00 0.00 0.00 55 1017.4
20260501220013 7 300 8.0 12.9 0.00 0.00 0.00 53 1017.3
20260501214603 7 302 1.6 17.7 0.00 0.00 0.00 53 1017.2
20260501213100 7 293 4.8 16.1 0.00 0.00 0.00 54 1017.0
20260501211601 7 295 8.0 20.9 0.00 0.00 0.00 52 1016.8
20260501210059 8 292 9.7 17.7 0.00 0.00 0.00 50 1016.8
20260501204558 8 302 9.7 19.3 0.00 0.00 0.00 50 1016.8
20260501203057 8 259 4.8 16.1 0.00 0.00 0.00 48 1016.8
20260501201557 9 308 6.4 19.3 0.00 0.00 0.00 50 1016.9
20260501200055 8 280 1.6 19.3 0.00 0.00 0.00 47 1017.0
20260501194545 8 243 12.9 20.9 0.00 0.00 0.00 49 1017.1
20260501193038 8 306 14.5 24.1 0.00 0.00 0.00 53 1017.3
20260501191528 8 255 8.0 24.1 0.00 0.00 0.00 58 1017.2
20260501190043 8 256 11.3 25.7 0.00 0.00 0.00 57 1017.3
20260501184559 8 205 8.0 19.3 0.00 0.00 0.00 58 1017.3
20260501183102 8 258 0.0 16.1 0.00 0.00 0.00 54 1017.4
20260501181539 8 292 4.8 20.9 0.00 0.00 0.00 49 1017.4
20260501180038 8 289 1.6 14.5 0.00 0.03 0.00 49 1017.5
20260501174519 8 323 1.6 17.7 0.00 0.03 0.00 46 1017.6
20260501173019 9 224 1.6 12.9 0.00 0.03 0.00 51 1017.5
20260501171657 8 288 1.6 17.7 0.00 0.03 0.00 49 1017.9
20260501170057 8 283 4.8 16.1 0.00 0.03 0.00 50 1018.1
20260501164536 8 344 1.6 20.9 0.00 0.03 0.00 48 1018.3
20260501163035 7 281 1.6 12.9 0.00 0.03 0.00 51 1018.5
20260501161514 7 290 4.8 12.9 0.00 0.03 0.00 53 1018.6
20260501160015 7 271 0.0 4.8 0.00 0.03 0.00 55 1018.8
20260501154628 7 234 1.6 11.3 0.00 0.03 0.00 56 1018.8
20260501153104 7 290 3.2 8.0 0.00 0.03 0.00 55 1018.9
20260501151539 6 307 0.0 3.2 0.00 0.03 0.00 55 1019.0
20260501150054 7 313 0.0 14.5 0.00 0.03 0.00 58 1019.0